Theta_e
317 316 317 318 317 317 318 318 318 318 319 319 318 319 321 322 321 313 305 312 316 325 323 317 318 318 322 318 314 311 299 294 297 299 302 305 301 303 303 302 300 301 309 315 324
314 314 315 315 315 316 316 316 317 316 317 317 318 318 318 320 314 307 316 322 324 326 318 313 310 314 313 314 313 305 299 299 304 305 302 304 302 303 300 300 304 306 314 322 323
313 315 316 317 316 316 315 315 315 315 315 315 316 317 317 316 305 304 321 325 326 325 319 317 317 314 311 310 309 303 298 305 306 307 306 304 301 303 300 296 304 308 314 320 319
316 315 314 314 315 314 313 313 313 314 314 314 315 316 317 309 289 306 323 324 328 321 317 313 312 309 307 305 309 301 306 306 308 309 306 302 304 300 301 301 307 315 316 319 317
315 314 314 314 314 313 313 312 313 313 313 313 314 314 309 300 299 311 322 317 315 319 314 310 307 308 304 304 307 304 303 306 308 308 307 306 302 301 300 302 313 315 315 314 317
314 314 313 313 313 312 312 312 312 312 312 311 312 313 302 293 305 310 309 308 309 315 312 311 307 311 307 303 304 306 306 305 306 305 305 303 302 301 302 306 310 312 313 312 311
312 312 312 311 310 311 311 311 311 311 311 311 311 306 299 294 306 307 307 304 307 314 311 313 311 309 308 303 307 305 300 303 303 303 302 304 298 298 302 307 308 309 310 310 308
312 311 311 310 310 310 310 310 310 310 311 311 311 303 292 304 305 304 305 303 304 306 315 316 314 310 306 307 303 299 299 294 301 302 302 301 292 300 303 303 305 307 307 308 307
311 310 310 309 309 309 309 310 310 310 311 310 303 299 289 304 300 303 304 300 300 306 312 316 312 305 304 298 295 297 289 292 296 302 301 300 293 301 304 300 302 305 306 307 307
310 309 309 309 309 308 309 309 309 307 303 303 302 293 295 292 300 301 303 303 299 300 305 306 303 298 298 296 287 289 288 291 292 297 300 296 295 298 302 299 297 301 305 306 305
309 309 309 309 308 308 305 300 292 291 294 290 291 292 295 299 302 296 301 298 300 299 294 300 293 291 294 297 296 294 290 289 293 298 296 296 296 298 300 298 295 297 302 303 304
309 308 308 308 308 307 301 293 294 296 288 293 293 293 295 296 290 293 301 294 291 288 294 294 290 295 298 298 296 293 291 288 291 295 293 292 294 299 301 297 296 295 297 302 303
308 309 308 308 307 300 295 295 300 298 287 287 291 291 292 294 289 289 296 295 290 288 290 288 292 299 296 295 293 293 290 288 289 290 288 290 288 293 297 298 297 297 298 300 303
309 309 309 307 297 296 293 300 300 297 277 280 286 292 292 294 287 295 297 293 289 286 289 288 294 294 293 292 295 289 295 292 291 287 283 287 280 285 294 293 298 297 296 298 301
308 308 308 307 296 293 297 300 299 293 263 282 288 299 296 289 290 290 298 292 286 288 289 285 288 291 290 292 295 290 296 292 291 286 283 281 279 281 285 291 294 297 297 298 300
308 308 307 299 297 297 302 299 292 271 260 279 287 285 285 289 289 292 293 296 291 287 291 288 293 294 293 295 296 296 292 291 290 287 279 281 279 279 282 285 288 294 299 299 300
307 307 304 302 293 299 298 287 269 262 279 279 281 284 284 284 286 285 285 286 282 280 282 287 286 289 295 290 293 293 288 280 279 278 275 282 279 283 287 289 290 291 293 300 299
307 306 301 301 299 298 289 274 261 272 277 284 283 283 282 284 285 285 283 281 286 284 281 280 279 286 291 290 287 288 287 278 273 271 275 282 278 283 291 294 292 291 292 298 297
305 294 294 297 301 295 280 263 266 276 282 280 282 279 280 284 284 283 281 283 287 286 280 281 280 288 289 290 291 287 284 287 278 277 275 277 279 286 289 289 289 290 291 293 295
292 289 291 297 298 288 273 271 275 283 284 283 277 279 276 280 280 281 282 286 287 288 288 285 277 286 289 291 290 289 289 281 280 271 272 274 276 280 283 286 286 286 288 293 294
290 282 292 295 292 279 267 268 279 285 286 281 278 279 279 279 281 280 283 287 289 289 289 286 279 280 286 283 282 285 284 282 282 279 274 273 276 282 283 285 285 287 287 291 293
286 274 290 293 276 272 269 280 286 283 286 285 284 283 281 281 279 281 282 286 291 291 286 288 278 278 279 285 285 285 284 281 275 272 271 275 277 283 283 284 285 287 286 288 292
279 280 290 288 271 278 279 281 283 283 283 283 282 284 285 281 276 282 284 290 292 289 286 289 280 275 277 281 283 282 284 280 279 279 276 275 278 285 284 285 285 286 284 288 291
279 273 279 279 285 281 277 277 279 285 284 285 283 285 282 280 282 277 282 289 291 291 294 291 280 278 274 275 275 273 276 282 281 276 276 277 279 284 285 285 286 286 286 287 290
279 275 281 271 275 276 278 277 279 279 284 286 282 283 282 272 275 275 284 286 288 290 289 285 274 278 281 281 281 279 275 275 276 279 277 280 281 283 286 284 284 285 286 288 289
277 278 278 280 281 273 279 274 279 280 281 280 282 283 283 277 282 280 284 283 284 285 285 285 278 281 279 282 282 279 280 280 278 280 279 281 282 288 285 286 285 285 287 288 288
289 286 285 279 274 272 272 277 277 280 282 286 284 284 280 284 287 288 289 288 287 285 283 280 281 276 272 280 280 275 280 279 279 280 281 278 285 287 284 286 286 286 287 288 288
Wind_Speed
16 18 19 17 16 16 16 16 17 15 16 15 15 16 16 16 14 4 11 13 10 20 13 3 4 5 3 6 5 5 3 6 5 7 3 1 2 0 3 8 3 2 7 13 20
18 18 16 16 17 17 16 16 17 17 17 18 18 15 16 15 9 12 19 18 20 16 10 8 10 9 5 6 6 6 7 8 5 4 1 5 4 5 6 5 4 4 9 23 21
16 17 18 18 15 15 16 17 18 18 18 18 18 17 14 12 9 9 4 7 22 18 12 7 4 12 8 5 6 6 9 10 5 5 3 4 2 2 10 1 6 15 21 22 20
18 16 18 17 17 16 17 18 19 19 19 18 17 17 13 4 11 3 10 20 7 17 13 7 6 8 7 9 9 5 15 7 18 5 5 4 7 2 2 6 11 21 25 23 21
18 18 18 18 18 18 18 19 19 20 20 19 18 16 8 9 12 16 23 15 13 11 18 15 13 10 14 8 10 10 3 17 14 13 6 7 3 3 4 3 13 17 21 20 18
18 19 19 19 20 20 21 21 21 21 21 20 19 18 9 26 2 10 16 7 8 8 15 16 9 12 10 7 15 9 16 11 7 9 4 7 4 1 1 8 15 17 18 17 19
18 19 19 20 22 22 22 23 24 24 23 22 21 13 16 23 12 14 13 5 4 8 16 17 17 15 7 8 7 14 9 14 18 5 6 5 7 6 2 10 16 17 15 15 14
19 19 19 21 22 22 24 24 25 26 26 24 21 9 17 4 11 22 23 19 13 12 15 12 15 10 4 4 5 9 7 9 10 10 7 10 6 7 7 10 12 14 12 14 12
19 20 21 21 23 23 24 25 28 29 28 24 16 12 13 6 9 22 13 11 10 7 9 13 6 14 6 7 4 11 9 17 7 11 7 10 4 9 7 10 9 11 14 15 14
19 19 21 22 23 24 25 26 26 20 9 3 4 4 7 7 4 2 5 15 12 13 7 11 10 9 7 11 14 18 13 8 12 8 11 7 6 4 6 10 12 12 13 15 15
19 19 21 22 23 24 17 5 7 6 5 5 9 7 14 3 1 8 3 3 10 8 15 16 14 19 27 23 10 12 8 8 9 6 8 15 10 10 7 6 10 13 13 14 15
20 20 20 22 23 23 3 3 6 4 12 14 20 18 22 10 15 22 5 6 11 21 15 10 22 26 16 14 18 8 12 9 3 5 7 6 14 12 14 7 8 11 13 15 13
21 20 19 20 22 4 4 3 6 3 5 12 4 5 6 7 14 18 13 8 7 19 20 20 13 15 17 17 17 20 17 6 8 4 2 5 6 8 9 5 7 8 14 14 19
20 19 19 17 6 4 5 6 3 1 3 8 3 3 3 3 7 14 10 7 4 21 19 14 19 24 20 21 19 16 13 6 7 6 4 2 6 8 15 8 12 10 11 15 16
19 19 19 14 4 3 6 6 2 2 6 5 3 1 2 5 6 1 12 8 8 11 14 12 16 16 18 24 14 5 16 11 5 6 3 2 2 8 4 16 16 14 12 14 17
20 18 16 4 2 5 6 5 4 6 7 7 6 19 12 2 4 4 9 8 6 5 8 5 4 9 8 16 23 9 10 7 6 4 4 8 6 6 7 8 8 17 19 19 19
18 17 12 2 4 6 4 5 7 6 7 10 17 15 17 9 5 6 2 4 6 4 8 7 5 4 6 11 6 6 14 5 6 6 6 9 6 10 6 7 10 11 17 21 18
18 17 5 4 5 5 4 7 7 5 5 14 13 18 5 10 3 5 5 4 3 3 5 10 9 7 7 10 9 14 13 5 8 6 4 6 8 8 13 15 12 8 11 12 15
13 4 3 5 6 3 6 6 7 3 7 13 15 5 4 7 4 6 6 6 6 4 3 8 3 2 4 3 9 7 9 4 6 4 4 5 5 10 7 10 8 9 7 12 15
2 2 3 6 4 5 6 4 3 3 6 6 4 5 5 10 9 9 4 4 7 10 10 5 7 2 3 4 1 11 8 3 2 5 4 3 4 6 5 7 6 7 10 13 14
3 4 4 6 4 6 3 6 6 8 11 3 3 5 5 6 10 6 6 2 4 4 12 2 3 2 5 1 7 4 8 4 7 1 5 3 6 4 5 7 8 9 6 8 13
2 4 4 4 5 1 1 4 10 7 5 5 4 6 4 13 5 5 5 4 7 6 4 2 3 4 2 3 1 4 7 6 6 5 1 3 6 2 6 8 7 6 2 5 7
2 2 3 5 4 4 6 6 4 6 8 5 5 3 5 5 5 4 3 1 6 4 3 5 2 5 3 4 5 6 4 6 5 4 5 6 4 3 5 7 7 6 3 4 7
3 4 5 5 1 2 5 6 7 7 5 8 6 6 5 4 2 6 8 6 6 6 9 6 4 4 5 5 5 4 4 5 5 4 5 6 3 4 6 7 7 7 5 4 7
3 2 3 4 5 3 1 3 8 9 3 6 5 9 9 5 6 2 2 6 4 9 5 3 3 3 2 5 6 4 5 4 5 4 6 5 6 1 4 2 0 2 4 6 7
4 3 3 2 6 5 4 3 6 10 4 4 6 11 9 3 4 8 8 5 4 4 2 2 1 3 3 4 7 3 5 6 3 4 1 2 9 5 4 4 2 3 5 6 7
2 2 2 3 4 3 3 4 7 8 6 5 11 12 6 6 11 13 9 5 6 4 1 1 2 3 2 4 5 4 10 8 5 3 9 8 13 3 2 4 5 6 6 7 8
Wind_Direction
339 336 334 337 339 336 334 329 325 330 330 320 319 314 315 332 305 284 251 224 206 239 257 186 182 196 249 221 194 161 187 205 224 190 217 268 231 282 95 116 55 69 149 154 157
333 330 332 324 327 326 326 329 326 324 322 318 319 316 314 329 306 258 248 245 230 239 198 202 202 189 200 209 201 178 210 211 207 252 215 292 201 190 106 132 45 54 90 136 152
329 331 331 333 331 332 330 327 324 318 315 312 313 315 319 328 290 243 264 222 223 216 204 202 188 202 211 174 204 194 212 215 243 280 315 277 313 263 123 168 193 154 141 150 155
328 332 329 328 332 330 325 321 318 314 310 310 310 310 309 309 251 207 93 4 316 200 182 198 193 200 195 206 194 200 217 238 243 268 344 328 323 250 190 203 149 155 150 154 160
337 333 333 328 327 323 319 315 311 307 305 305 305 302 305 231 243 281 294 339 324 157 183 196 211 207 208 190 174 214 198 226 248 260 292 288 277 292 253 159 141 150 154 158 162
337 336 338 334 327 321 315 310 305 303 300 297 293 294 276 257 308 290 284 343 255 186 200 197 216 217 217 224 199 189 220 234 237 243 255 222 232 151 91 131 136 157 166 161 163
337 336 334 334 327 321 317 311 306 299 294 291 288 284 266 254 306 288 293 279 302 264 210 217 216 192 180 219 224 219 196 231 244 205 232 166 265 188 151 158 155 168 169 170 160
334 333 334 330 326 321 316 311 304 296 289 285 280 274 263 285 238 260 265 273 265 269 239 217 214 232 218 262 165 191 198 226 237 182 218 155 240 222 178 147 173 173 169 172 176
333 334 332 331 328 323 319 313 303 293 290 282 269 249 268 271 236 243 243 244 270 250 235 218 196 218 170 205 194 190 205 215 238 187 181 188 220 217 187 165 182 186 181 180 180
331 334 332 328 327 323 321 316 298 302 298 254 216 278 261 250 228 280 241 227 243 261 234 200 200 199 208 199 203 188 192 190 204 196 189 195 205 228 200 165 187 188 191 187 184
330 335 331 328 325 324 329 327 1 347 12 268 259 258 278 221 285 279 243 322 218 248 220 194 203 206 207 204 197 204 169 179 189 201 172 220 211 223 206 175 183 190 192 190 190
333 330 329 326 323 324 15 336 296 291 291 269 247 258 264 273 282 263 187 231 185 223 213 190 212 214 213 197 205 197 206 193 157 156 181 215 228 219 225 198 186 185 195 192 189
326 326 325 327 324 3 312 266 315 332 278 301 260 243 254 191 227 256 176 159 236 220 211 226 227 204 202 200 198 213 203 180 150 135 133 147 258 219 242 212 188 205 188 198 189
327 328 325 333 349 321 299 313 344 94 320 280 285 282 218 238 260 226 200 140 276 212 219 223 250 191 186 215 198 201 193 172 147 116 202 189 247 230 214 215 219 207 198 190 196
330 328 330 332 279 318 271 315 319 61 335 294 298 339 251 175 282 346 151 114 235 221 187 201 209 212 203 204 185 212 184 174 137 137 55 263 116 274 189 218 220 222 207 198 191
330 325 327 327 321 247 301 334 52 47 264 304 320 326 324 260 263 91 155 102 132 297 227 178 157 184 204 177 187 186 109 66 51 80 219 209 158 256 206 195 214 226 218 203 194
337 323 320 225 296 309 342 39 35 110 316 338 321 325 320 321 306 194 293 135 169 212 162 168 161 180 165 179 122 193 139 153 190 195 214 178 180 240 230 226 204 216 220 208 190
332 321 323 36 317 359 43 46 68 256 281 315 318 312 14 359 311 319 165 153 180 183 328 166 193 177 167 198 179 178 166 164 190 180 168 115 225 251 224 231 236 227 233 193 182
340 334 24 319 341 50 62 46 207 263 320 327 322 318 318 355 308 315 184 186 136 169 231 191 186 141 145 126 143 170 196 140 97 23 63 209 273 304 230 250 237 237 170 181 183
353 4 318 323 8 55 69 259 243 284 304 321 307 356 310 334 331 342 9 7 162 170 147 277 107 345 125 114 68 178 133 135 337 127 191 286 292 226 313 302 301 251 209 191 182
45 39 266 342 59 47 117 241 285 287 307 285 271 288 281 315 327 307 352 17 21 175 147 266 65 353 96 144 166 117 182 120 119 18 164 146 254 220 263 277 290 249 216 189 183
47 40 302 33 46 31 327 279 294 296 315 289 232 242 276 326 307 309 348 335 338 342 154 73 97 112 132 190 321 277 162 137 138 222 163 125 278 295 270 269 265 252 184 183 179
109 255 321 76 51 344 292 287 277 316 319 326 289 290 330 302 335 325 314 288 3 341 163 171 39 88 83 349 86 260 144 117 107 104 202 141 246 316 4 10 356 94 80 122 130
75 27 330 37 227 264 321 296 320 303 290 337 279 324 344 321 304 306 328 346 338 353 26 140 137 164 173 188 136 168 120 142 131 131 163 221 179 351 3 15 10 23 43 125 140
27 273 157 306 315 302 239 286 311 342 327 332 324 3 336 322 327 320 346 304 350 4 44 85 147 107 17 170 151 145 144 153 142 155 160 266 194 128 11 205 50 33 68 111 120
103 64 340 249 296 358 342 290 322 329 277 308 328 324 311 269 315 315 340 10 303 0 50 326 291 126 65 95 80 103 168 162 153 174 161 322 292 161 98 98 144 157 125 138 132
339 9 90 331 330 42 257 312 293 326 291 270 312 303 301 333 306 288 274 254 259 297 339 56 119 90 190 94 63 339 209 179 159 181 164 207 234 82 74 220 210 193 176 171 163